STARLINK-5439, 54783

Orbit data source: Space-Track

STARLINK-5439, 54783 is a payload satellite owned by SpaceX/Seattle (US) in LEO that was launched on Sat, 17 Dec 2022 UTC via an FALCON 9 launch vehicle from the Air Force Eastern Test Range (AFETR). Payload-class satellites include a variety of spacecraft equipped with specific instruments for various scientific and technological missions. These include communications satellites like Starlink; space stations such as the ISS; scientific satellites like the Hubble; Earth observation satellites from companies like Planet Labs, Umbra, and HawkEye 360; GPS; miniature CubeSats for education and research; and military/defense satellites.

Loading next visibility...
Identifier
54783, 2022-175AB
Orbit
LEO
Last TLE update
8 hours ago
Origin
Manufacturer
SpaceX/Seattle
Mission
Operational Commercial Communications
Bus & Motor
STARLINK, Unknown motor
Mass
305 kg wet, ~290 kg dry
Launch date (UTC)
2022-12-17 (2 years ago)
Launch vehicle
FALCON 9
Launch site
Air Force Eastern Test Range (AFETR)
Object type
Payload
Rocket body
Debris
Shape & HBR
Box + 1 Pan, 8.86 m
Radar Cross Section
13.562 m², Large (>1 m²)

Expand to show TLE details & history

TLE from 8 hours ago
0 STARLINK-5439
1 54783U 22175AB  25130.93224104  .00002795  00000-0  19355-3 0  9999
2 54783  53.2175 308.2338 0001218  88.3595 271.7536 15.08852454134426
Epoch: 2025-05-10T22:22Z
Definitive object data (Epoch: 2025-05-10T22:22:25.625Z)
Latitude
-0.00009°
Longitude
103.66002°
Altitude
540.577 km
Speed
7.593 km/s
True Right ascension
20h 32m 56s
True Declination
0° 00' 00"
Sunlit
Object was in daylight at TLE epoch
Visualization TLE readout
Latitude
49.59679°
Longitude
162.98586°
Altitude
544.64 km
Speed
7.596 km/s
Apparent Right ascension
01h 45m 51s
Apparent Declination
7° 30' 48"
Sunlit
Object is in daylight
Visualization observer readout
Local Sidereal Time
14:55:02
Azimuth
22.612° NE
Elevation
-39.95°
Doppler factor
1
Orbital elements
Apogee altitude
540.793 km
Perigee altitude
539.108 km
Semi-major axis
6,918.087 km
Eccentricity
0.0001218
Inclination
53.2175°
RAAN
308.2338°
Arg. of periapsis
88.3595°
True anomaly
271.73965°
Mean anomaly
271.7536°
Eccentric anomaly
271.74662°
Mean motion
3.77193 °/min
BSTAR
0.00019355
Orbital period
95.44 mins
Loading maneuver chart data...
Loading SW <> Apogee altitude chart data...
Loading historical data...
Loading historical data...
Loading historical data...
Loading historical data...
Loading historical data...
Loading historical data...
Loading historical data...

STARLINK-5439 Visibility forecast

Observer location: undefined°, undefined°

Span
Click to sort rows by Start time (UTC) header in descending order
Start Az.
Max El. time (UTC)
Max El. Az.
Max El.
End time (UTC)
End Az.
7 mins2025-05-11 14:26:17.059Z224.003° SW2025-05-11 14:30:17.059Z95.222° ESE44.003°2025-05-11 14:33:17.059Z52.91° ENE
4 mins2025-05-11 16:08:17.059Z305.713° NW2025-05-11 16:09:17.059Z325.389° NNW20.233°2025-05-11 16:12:17.059Z21.764° NNE
4 mins2025-05-11 19:29:17.059Z348.196° N2025-05-11 19:31:17.059Z24.808° NE17.651°2025-05-11 19:33:17.059Z58.268° ENE
6 mins2025-05-11 21:08:17.059Z316.131° NNW2025-05-11 21:11:17.059Z82.104° E42.728°2025-05-11 21:14:17.059Z123.079° SE
|